CAPE
0 0 0 0 0 0 0 0 0 0 0 0 0 0 0 0 0 0 0 0 0 0
0 0 0 0 0 0 0 0 0 0 0 0 0 0 0 0 0 0 0 0 0 0
0 0 0 0 0 0 0 0 0 0 0 0 0 0 0 0 0 0 0 0 0 0
0 0 0 0 0 0 0 0 0 0 0 0 0 0 0 0 0 0 0 0 0 0
0 0 0 0 0 0 0 0 0 0 0 0 0 1 2 2 3 2 0 0 1 0
0 0 0 0 0 0 0 0 0 0 0 1 1 2 2 3 2 3 2 2 1 0
0 0 0 0 0 0 0 1 1 1 1 1 2 2 3 3 1 2 2 2 1 0
0 0 0 0 0 0 1 2 2 2 1 2 3 3 2 1 1 0 0 1 1 1
0 0 0 0 0 1 1 0 0 0 0 1 1 1 6 7 0 0 0 0 0 0
0 0 0 0 0 0 0 0 0 0 0 0 0 0 4 11 8 1 0 2 3 0
0 0 0 0 0 0 0 0 0 0 0 0 0 2 3 7 4 1 2 1 3 3
0 0 0 0 0 0 0 0 0 0 0 0 0 1 4 8 2 3 2 5 5 2
0 0 0 0 0 0 0 0 2 1 0 0 0 1 6 9 3 0 1 2 4 12
0 0 0 0 0 0 0 1 1 0 0 0 0 0 2 4 5 7 2 1 2 1
CIN
-0 -0 -0 -0 -0 -0 -0 -0 -0 -0 -0 -0 -0 -0 -0 -0 -0 -0 -0 -0 -0 -0
-0 -0 -0 -0 -0 -0 -0 -0 -0 -0 -0 -0 -0 -0 -0 -0 -0 -0 -0 -0 -0 -0
-0 -0 -0 -0 -0 -0 -0 -0 -0 -0 -0 -0 -0 -0 -0 -0 -0 -0 -0 -0 -0 -0
-0 -0 -0 -0 -0 -0 -0 -0 -0 -0 -0 -0 -0 -0 -0 -0 -0 -0 -0 -0 -0 -0
-0 -0 -0 -0 -0 -0 -0 -0 -0 -0 -0 -0 -0 -0 -0 -0 -0 -0 -0 -0 -0 -0
-0 -0 -0 -0 -0 -0 -0 -0 -0 -0 -0 -0 -0 -0 -0 -0 -0 -1 -0 -0 -1 -0
-0 -0 -0 -0 -0 -0 -0 -0 -0 -0 -0 -0 -0 -0 -0 -0 -0 -0 -0 -0 -1 -0
-0 -0 -0 -0 -0 -1 -0 -0 -0 -0 -0 -0 -0 -0 -0 -0 -0 -0 -0 -0 -0 -0
-0 -0 -0 -0 -0 -0 -0 -0 -0 -0 -1 -1 -0 -0 -1 -2 -4 -0 -0 -0 -0 -0
-0 -0 -0 -0 -0 -0 -0 -0 -0 -0 -0 -0 -0 -0 -1 -1 -3 -4 -0 -1 -1 -3
-0 -0 -0 -0 -0 -0 -0 -0 -0 -0 -0 -0 -0 -1 -1 -3 -1 -1 -1 -1 -1 -1
-0 -0 -0 -0 -0 -0 -0 -0 -0 -0 -0 -0 -0 -1 -1 -2 -1 -1 -1 -1 -1 -1
-0 -0 -0 -0 -0 -0 -0 -0 -3 -1 -0 -0 -0 -0 -0 -0 -1 -1 -0 -1 -1 -1
-0 -0 -0 -0 -0 -0 -0 -4 -0 -0 -0 -0 -0 -0 -0 -0 -0 -0 -1 -0 -1 -1
Wind_Speed
49 49 50 51 53 53 53 52 52 52 51 51 51 50 51 51 51 50 51 51 50 51
50 51 52 53 52 52 52 53 53 52 53 53 52 52 52 52 53 51 51 52 52 52
51 51 52 53 54 54 54 54 54 54 54 53 53 52 52 53 53 54 53 52 53 53
51 52 52 53 53 54 55 55 55 55 55 55 54 53 53 54 55 56 56 55 56 56
51 52 53 53 54 54 55 54 54 54 53 53 52 52 53 54 53 55 56 56 56 58
52 53 53 53 53 52 52 52 51 50 51 52 51 51 51 52 53 53 54 55 57 58
52 52 52 51 51 50 49 50 50 49 50 50 50 49 49 50 51 51 52 52 54 55
50 50 50 49 49 49 48 46 45 45 45 46 46 46 46 45 47 49 51 51 51 52
50 49 49 49 47 44 45 44 42 42 39 35 38 38 43 44 44 44 45 48 50 51
49 49 45 44 44 42 35 30 29 30 31 32 32 31 31 32 37 39 39 42 46 48
48 33 34 38 32 32 30 30 31 31 30 29 31 34 40 31 35 36 32 33 39 45
39 34 31 34 35 29 30 32 31 27 24 24 26 29 33 30 31 31 31 29 32 40
32 34 35 34 31 30 30 28 24 24 21 23 26 30 32 34 30 28 26 26 29 32
36 34 32 29 29 28 29 25 22 21 20 20 21 27 30 28 25 27 26 34 33 20
Wind_Direction
322 319 317 315 313 311 309 307 306 303 301 298 296 294 292 290 288 286 283 281 279 277
322 320 318 316 315 312 310 309 306 304 302 299 297 294 291 288 286 285 283 281 279 277
322 321 319 317 314 312 310 309 307 304 302 300 297 295 292 289 286 282 281 280 278 276
322 320 319 316 314 312 310 308 306 304 301 299 296 294 291 289 286 282 279 277 275 274
322 321 318 316 314 313 310 309 307 305 302 299 297 295 291 289 286 283 280 277 274 272
323 322 320 318 317 315 313 311 309 306 303 300 298 295 293 290 287 284 281 278 274 271
326 324 323 321 320 318 316 313 310 307 304 301 299 296 294 291 287 284 282 279 275 272
328 327 326 324 322 320 318 316 314 311 307 304 301 298 295 292 288 285 282 279 276 272
330 330 328 326 326 325 322 319 316 312 308 301 302 298 295 292 289 286 282 278 276 272
333 332 332 331 329 327 319 294 295 302 303 297 296 287 282 283 288 285 281 278 276 274
336 302 329 332 325 295 297 304 308 305 300 293 297 295 295 273 284 282 273 273 274 272
300 303 310 299 295 307 314 315 316 309 298 297 283 275 266 277 280 272 267 265 271 270
306 302 299 300 304 312 320 312 315 300 299 294 291 281 273 259 280 264 261 266 270 228
303 302 303 311 308 315 311 308 304 304 308 304 300 291 282 265 249 237 229 222 219 230